ISS (ZARYA) 1 25544U 98067A 25355.44057291 .00008972 00000+0 16671-3 0 9991 2 25544 51.6323 99.3910 0003157 280.7962 79.2671 15.49701473544201 CSS (TIANHE) 1 48274U 21035A 25355.23271625 .00015940 00000+0 19865-3 0 9994 2 48274 41.4687 325.1329 0007749 105.4905 254.6789 15.59524425265357 ISS (NAUKA) 1 49044U 21066A 25355.18262870 .00008423 00000+0 15703-3 0 9995 2 49044 51.6324 100.6685 0003175 279.9061 80.1569 15.49696285230447 FREGAT DEB 1 49271U 11037PF 25353.93861561 .00003390 00000+0 77751-2 0 9995 2 49271 51.6435 178.1467 0862536 239.3977 111.9064 12.34497882202827 CSS (WENTIAN) 1 53239U 22085A 25355.23271625 .00015946 00000+0 19872-3 0 9991 2 53239 41.4687 325.1329 0007749 105.4926 254.6769 15.59524435173848 CSS (MENGTIAN) 1 54216U 22143A 25355.23271625 .00015946 00000+0 19872-3 0 9992 2 54216 41.4687 325.1329 0007749 105.4926 254.6769 15.59524435158645 SHENZHOU-20 (SZ-20) 1 63632U 25082A 25355.23271625 .00015946 00000+0 19872-3 0 9999 2 63632 41.4687 325.1329 0007749 105.4926 254.6769 15.59524435255308 PROGRESS-MS 31 1 64751U 25146A 25355.18262870 .00008423 00000+0 15703-3 0 9990 2 64751 51.6324 100.6685 0003175 279.9061 80.1569 15.49696285 6754 TIANZHOU-9 1 64786U 25149A 25355.23271625 .00015946 00000+0 19872-3 0 9994 2 64786 41.4687 325.1329 0007749 105.4926 254.6769 15.59524435255309 CREW DRAGON 11 1 65077U 25166A 25355.18262870 .00008423 00000+0 15703-3 0 9994 2 65077 51.6324 100.6685 0003175 279.9061 80.1569 15.49696285 2145 DRAGON CRS-33 1 65304U 25186A 25355.18262870 .00008423 00000+0 15703-3 0 9999 2 65304 51.6324 100.6685 0003175 279.9061 80.1569 15.49696285 113 PROGRESS-MS 32 1 65586U 25204A 25355.18262870 .00008423 00000+0 15703-3 0 9992 2 65586 51.6324 100.6685 0003175 279.9061 80.1569 15.49696285 272 CYGNUS NG-23 1 65616U 25208A 25355.18262870 .00008423 00000+0 15703-3 0 9990 2 65616 51.6324 100.6685 0003175 279.9061 80.1569 15.49696285 221 DRAGONFLY 1 65729U 98067XH 25355.50347433 .00170588 00000+0 11144-2 0 9999 2 65729 51.6248 90.7906 0007643 331.3887 28.6692 15.74757439 14540 1998-067XK 1 65731U 98067XK 25354.00696790 .00076617 00000+0 70175-3 0 9997 2 65731 51.6294 100.3244 0004763 292.7833 67.2659 15.67078773 14280 RSP-03 1 65732U 98067XL 25355.52451324 .00121759 00000+0 95100-3 0 9991 2 65732 51.6266 91.6927 0005725 306.8902 53.1571 15.70746693 14546 GHS-01 1 65733U 98067XM 25355.31006144 .00229224 00000+0 12619-2 0 9994 2 65733 51.6276 91.0058 0008633 334.0400 26.0167 15.78445011 14531 YOTSUBA-KULOVER 1 65941U 98067XN 25354.72017268 .00050568 00000+0 60496-3 0 9998 2 65941 51.6291 99.8352 0001834 329.1843 30.9043 15.60468016 11102 BOTAN 1 65942U 98067XP 25354.57898423 .00082185 00000+0 83574-3 0 9994 2 65942 51.6283 99.6415 0002950 304.2475 55.8240 15.64441775 11097 E-KAGAKU-1 1 65943U 98067XQ 25352.35057484 .00070368 00000+0 84620-3 0 9996 2 65943 51.6302 111.7666 0001345 249.8249 110.2600 15.60193795 10732 HRC MONOBLOCK CAMERA 1 66052U 98067XR 25355.52305909 .00030976 00000+0 46332-3 0 9997 2 66052 51.6310 97.6939 0002361 225.6973 134.3824 15.54715568 10201 HTV-X1 1 66174U 25241A 25355.18262870 .00008423 00000+0 15703-3 0 9997 2 66174 51.6324 100.6685 0003175 279.9061 80.1569 15.49696285 513 SZ-21 MODULE 1 66515U 25246C 25355.10297298 .00021377 00000+0 23274-3 0 9990 2 66515 41.4772 325.0132 0005392 304.7401 55.2931 15.62895195 5757 SHENZHOU-22 1 66645U 25272A 25355.23271625 .00015946 00000+0 19872-3 0 9997 2 66645 41.4687 325.1329 0007749 105.4926 254.6769 15.59524435265193 SOYUZ-MS 28 1 66664U 25275A 25355.44057291 .00008972 00000+0 16671-3 0 9990 2 66664 51.6323 99.3910 0003157 280.7962 79.2671 15.49701473 3793 1998-067XS 1 66906U 98067XS 25355.49314184 .00024678 00000+0 42362-3 0 9997 2 66906 51.6316 98.9926 0002953 243.0961 116.9727 15.51010585 2970 1998-067XT 1 66907U 98067XT 25355.48372652 .00054612 00000+0 87766-3 0 9999 2 66907 51.6316 98.9297 0003879 279.7244 80.3308 15.52463027 2973 1998-067XU 1 66908U 98067XU 25355.03229124 .00049977 00000+0 80289-3 0 9997 2 66908 51.6311 101.1653 0003904 276.2494 83.8051 15.52510982 2909 SILVERSAT 1 66909U 98067XV 25355.03120921 .00053716 00000+0 85685-3 0 9994 2 66909 51.6312 101.1583 0003815 279.3746 80.6813 15.52677939 2905 1998-067XW 1 66910U 98067XW 25355.02942549 .00046622 00000+0 74556-3 0 9996 2 66910 51.6309 101.1459 0004176 252.7985 107.2548 15.52668327 2908 1998-067XX 1 66911U 98067XX 25355.28420612 .00060532 00000+0 94843-3 0 9994 2 66911 51.6308 99.8474 0003853 259.7262 100.3293 15.53123462 2935 1998-067XY 1 66912U 98067XY 25355.48709823 .00043530 00000+0 71547-3 0 9996 2 66912 51.6317 98.9521 0004003 271.7448 88.3083 15.51934859 2960